Other Public Products
Issued by NWS Grand Forks, ND

Home | Current Version | Previous Version | Text Only | Print | Product List | Glossary Off
Versions: 1 2 3 4 5 6 7 8 9 10 11 12 13 14 15 16 17 18 19 20 21 22 23 24 25 26 27 28 29 30 31 32 33 34 35 36 37 38 39 40 41 42 43 44 45 46 47 48 49 50

000
FPUS83 KFGF 252231
OPUFGF
PRAIRIE TO PINES WEATHER ROUNDUP
NATIONAL WEATHER SERVICE EASTERN NORTH DAKOTA/GRAND FORKS ND
400 PM CST SAT FEB 25 2017

 **SATELLITE DATA USED TO AUGMENT SKY COVER AT AUTOMATED STATIONS**
 *****  WEATHER ACROSS EASTERN NORTH DAKOTA  *****

CITY           SKY/WX    TMP DP  RH WIND       PRES   REMARKS
GRAND FORKS    FAIR      29  16  58 NW13      29.77S WCI  19
GRAND FORKS AF FAIR      30  18  62 NW12      29.77S WCI  20
GRAND CITY NWS NOT AVBL
BUXTON         NOT AVBL
DEVILS LAKE    FAIR      23  13  65 W16       29.75F WCI  10
FARGO          CLOUDY    32  23  69 NW10      29.79F WCI  24
WAHPETON ARPT  CLOUDY    30  28  93 NW13      29.80F WCI  20
$$

 *****  WEATHER ACROSS CENTRAL AND WESTERN NORTH DAKOTA  *****

CITY           SKY/WX    TMP DP  RH WIND       PRES   REMARKS
JAMESTOWN      PTSUNNY   27  20  75 NW10      29.76F WCI  17
BISMARCK       FAIR      29  20  69 SW6       29.79S WCI  23
MINOT          LGT SNOW  22  16  78 N7        29.73F WCI  13
MINOT AFB      FLURRIES  19  13  77 N7        29.74F WCI  10
GARRISON         N/A     24  19  81 S5        29.73F WCI  18
WILLISTON      SNOW      28  25  88 SW7       29.67F VSB 1/2 WCI  21
DICKINSON      PTSUNNY   29  16  58 W12       29.67F WCI  19
HETTINGER      CLOUDY    32  14  47 W15       29.73F WCI  22
$$

 *****  OTHER OBSERVATIONS NORTHEAST NORTH DAKOTA  *****

CITY           SKY/WX    TMP DP  RH WIND       PRES   REMARKS
WALHALLA       NOT AVBL
LANGDON        NOT AVBL
CAVALIER         N/A     21  12  68 NW12G18   29.77S WCI   9
GRAFTON        FAIR      23  16  74 NW15      29.79F WCI  10
CANDO          NOT AVBL
FORT TOTTEN      N/A     25  15  66 W7        29.95S WCI  17
ROLLA          MOCLDY    16   9  73 N15       29.73F WCI   1
RUGBY            N/A     18  14  86 W8        29.75F WCI   7
 ***** THE ABOVE OBSERVATIONS ARE NON NWS ARE NOT QUALITY
        CONTROLLED AND MAY MIS-REPORT RAIN FOR SNOW...
$$

 *****  OTHER OBSERVATIONS SOUTHEAST NORTH DAKOTA *****

CITY           SKY/WX    TMP DP  RH WIND       PRES   REMARKS
COOPERSTOWN    FAIR      27  21  80 W13       29.76F WCI  16
VALLEY CITY    CLOUDY    27  23  86 NW8       29.79F WCI  18
OAKES          NOT AVBL
GWINNER        CLOUDY    30  28  93 NW12      29.79S WCI  21
SHEYENNE NWR     N/A     29  24  81 W8        29.95S WCI  21
BUFFALO        NOT AVBL
WYNDMERE         N/A     30  28  93 NW8         N/A  WCI  23
 ***** THE ABOVE OBSERVATIONS ARE NON NWS ARE NOT QUALITY
       CONTROLLED AND MAY MIS-REPORT RAIN FOR SNOW...
$$

  *****  WEATHER ACROSS NORTHERN MINNESOTA  *****

CITY           SKY/WX    TMP DP  RH WIND       PRES   REMARKS
FLAG ISLAND    LGT SNOW  21  16  79 SW13      29.67F WCI   9
WARROAD        LGT SNOW  23  18  80 W12       29.71F WCI  12
ROSEAU         LGT SNOW  23  18  80 W12G17    29.72S WCI  12
HALLOCK        PTSUNNY   25  18  74 NW9       29.76S WCI  15
THF RVR FALLS    N/A    N/A N/A N/A MISG        N/A
HALSTAD          N/A     30  21  69 NW9         N/A  WCI  22
FOSSTON        CLOUDY    28  19  69 SW14      29.75S WCI  17
BAUDETTE       CLOUDY    23  15  71 SW6       29.69F WCI  16
WASKISH        FAIR      23  18  80 W8        29.72S WCI  14
CROOKSTON      FAIR      28  19  69 NW12      29.77F WCI  18
$$
  *****  WEATHER ACROSS CENTRAL AND WEST MINNESOTA  *****

CITY           SKY/WX    TMP DP  RH WIND       PRES   REMARKS
BEMIDJI        FLURRIES  28  20  74 SW10      29.73F WCI  18
PARK RAPIDS    CLOUDY    29  19  66 W14       29.74F WCI  18
WADENA         LGT SNOW  27  25  93 SW8       29.77F WCI  18
DETROIT LAKES  PTSUNNY   30  25  80 W9        29.77F WCI  22
MOORHEAD       RAIN      28  27  93 W8        29.80S WCI  20
FERGUS FALLS   LGT SNOW  28  28 100 NW10      29.83F WCI  19
ELBOW LAKE     SNOW      29  28  97 NW5       29.80F VSB 1/2 WCI  24
MORRIS MN      FAIR      36  21  55 SW13      29.79F
STAPLES        LGT SNOW  27  23  86 SW10      29.78F WCI  17
WHEATON        PTSUNNY   36  19  51 SW8       29.80F
$$
  *****  WEATHER ELSEWHERE ACROSS MINNESOTA  *****

CITY           SKY/WX    TMP DP  RH WIND       PRES   REMARKS
DULUTH         FAIR      25  14  63 W16       29.75F WCI  12
INTRNTL FALLS  LGT SNOW  21  15  78 SW8       29.71F WCI  11
ELY            CLOUDY    19   9  63 W9        29.72S WCI   9
CLOQUET        CLOUDY    27  12  54 SW6       29.77S WCI  20
BRAINERD       CLOUDY    29  18  63 SW16      29.79F WCI  17
HIBBING        FAIR      23  11  60 SW10      29.73F WCI  12
ALEXANDRIA     CLOUDY    33  20  58 SW14G21   29.79F WCI  23
SAINT CLOUD    CLOUDY    32  18  56 W13       29.84F WCI  22
MINNEAPOLIS    CLOUDY    32  15  49 W13G20    29.89S WCI  22
$$

  *****  WEATHER ACROSS SOUTH DAKOTA  *****

CITY           SKY/WX    TMP DP  RH WIND       PRES   REMARKS
SIOUX FALLS    FAIR      28  17  63 S20       29.89F WCI  15
BROOKINGS      FAIR      31  19  61 S17       29.83F WCI  19
WATERTOWN      PTSUNNY   33  17  51 SW17      29.79F WCI  22
HURON          CLOUDY    39  19  44 W12       29.80F
SISSETON         N/A     39  20  46 W16G24    29.77F
ABERDEEN       CLOUDY    38  17  42 W10       29.77F
MITCHELL       PTSUNNY   31  21  66 S16       29.86F WCI  20
PIERRE         CLOUDY    35  24  64 NW12G21   29.79F
MOBRIDGE       CLOUDY    33  23  66 N15       29.76R WCI  23
RAPID CITY     CLOUDY    30  22  72 VRB3      29.77F
$$

  *****  SOME WEATHER IN NEARBY STATES *****

CITY           SKY/WX    TMP DP  RH WIND       PRES   REMARKS
GLASGOW MT     PTSUNNY   29  22  75 NW15G26   29.68F WCI  18
GREAT FALLS MT PTSUNNY   34   5  29 W22G33    29.67F WCI  22
CHEYENNE WY    FAIR      23   5  46 W21G29    29.77F WCI   8
SCOTTSBLUFF NE FAIR      29  13  51 W7        29.84F WCI  22
OMAHA NE       FAIR      33  13  43 S14       30.03F WCI  23
DES MOINES IA  CLOUDY    32  17  54 W9        30.05F WCI  24
DAVENPORT IA   FAIR      29  17  61 NW18      30.02R WCI  16
CHICAGO IL     FLURRIES  27  14  58 W21G26    29.93R WCI  13
EAU CLAIRE WI  FAIR      26   9  48 W13       29.88S WCI  15
LA CROSSE WI   FAIR      28  11  48 W12       29.96R WCI  18
$$

  *****  SOME NATIONAL WEATHER *****

CITY           SKY/WX    TMP DP  RH WIND       PRES   REMARKS
LA GUARDIA NY  MOCLDY    60  55  83 S17G24    29.48S
RALEIGH NC     PTSUNNY   76  48  37 SW20G29   29.56S
ATLANTA GA     FAIR      61  23  23 NW15      29.91R
NEW ORLEANS LA FAIR      69  31  24 NW9       30.05R
OKLAHOMA CITY  FAIR      48  13  24 S9        30.09F
ALBUQUERQUE NM PTSUNNY   48   9  20 S5        29.90F
SALT LAKE CITY FLURRIES  34  16  47 CALM      30.02F
LOS ANGELES CA PTSUNNY   56  46  69 W12       30.06F
BOISE ID       FAIR      38  15  39 W9        30.07F
SEATTLE WA     CLOUDY    43  31  62 SW8       30.16F
$$

*** WEATHER ACROSS MANITOBA...SASKATCHEWAN AND ONTARIO ***
                ***ONTARIO***

CITY           SKY/WX    TMP DP  RH WIND       PRES   REMARKS
GERALDTON      MOSUNNY   16  -6  38 W13       29.54R WCI   2
THUNDER BAY    MOSUNNY   25   1  36 NW15G25   29.67R WCI  12
SIOUX LOOKOUT  MOSUNNY   18   1  49 NW12      29.65S WCI   5
TORONTO        CLOUDY    36  21  55 W24G37    29.57R
BIG TROUT LK   CLOUDY    10  -6  48 NW5       29.60F WCI   2
PICKLE LAKE    MOSUNNY   10  -2  56 NW6       29.59S WCI   1
DRYDEN         CLOUDY    19   7  58 W13       29.65F WCI   7
KENORA         LGT SNOW  18  12  79 S7        29.65F WCI   8
$$
                *** MANITOBA***

CITY           SKY/WX    TMP DP  RH WIND       PRES   REMARKS
BRANDON        MOSUNNY   12   1  62 NW13      29.77F WCI  -3
DAUPHIN        MOSUNNY   12   3  67 W17G25    29.75F WCI  -5
ISLAND LAKE    PTSUNNY    9  -2  61 NW7       29.67F WCI  -3
PILOT MOUND      N/A     12   3  67 NW14        N/A  WCI  -3
THE PAS        FLURRIES   7  -4  61 NW16G23   29.73F WCI -11
THOMPSON       FLURRIES   3  -6  66 NW9       29.69F WCI -11
WINNIPEG       CLOUDY    16   9  73 NW15      29.77S WCI   1
LYNN LAKE      PTSUNNY    0  -8  71 NW7       29.67F WCI -13
CHURCHILL      CRYSTALS  -8 -13  77 W7        29.74F WCI -22
GILLAM         PTSUNNY    5  -8  56 W6        29.68F WCI  -6
$$
                ***SASKATCHEWAN***

CITY           SKY/WX    TMP DP  RH WIND       PRES   REMARKS
ESTEVAN        LGT SNOW  16  12  86 N5        29.74F FOG     WCI   9
KINDERSLEY     PTSUNNY   21  12  68 SW9       29.65F WCI  11
LLOYDMINSTER   PTSUNNY   19  12  73 SW8       29.61F WCI   9
PRINCE ALBERT  PTSUNNY   16   1  53 SW8       29.70F WCI   5
REGINA         FLURRIES  16   9  73 NW8       29.73F WCI   5
YORKTON        CLOUDY    10   1  67 NW12G18   29.74S WC


USA.gov is the U.S. government's official web portal to all federal, state and local government web resources and services.